Rushville, OH

3:04 PM EDT on September 04, 2015 (GMT -0400)
Northern Lancaster Area | | Change Station
CLOSE
Current Station
Personal Weather Station
Location: Lancaster, OH
Elevation: 1000 ft
Nearby Weather Stations

Elev 1000 ft 39.76 °N, 82.57 °W | Updated 23 seconds ago

Partly Cloudy
Partly Cloudy
88.7 °F
Feels Like 103 °F
N
4.0
Wind Variable Wind from SE
Gusts 8.0 mph

Today
High -- | Low -- °F
--% Chance of Precip.
Yesterday
High -- | Low -- °F
Precip. -- in
7:00 AM 7:56 PM
Waning Gibbous, 57% visible
Pressure 30.04 in
Visibility 10.0 miles
Clouds Clear
Heat Index 103 °F
Dew Point 78 °F
Humidity 71%
Rainfall 0.22 in
Snow Depth Not available.
UV 8 out of 12
Pollen 9.90 out of 12
Air Quality Not available.
Flu Activity Not available.
METAR KLHQ 041853Z AUTO 13003KT 10SM CLR 30/21 A3006 RMK AO2 SLP170 T03000211
Pressure 30.04 in
Visibility 10.0 miles
Clouds Clear
Heat Index 103 °F
Dew Point 78 °F
Humidity 71%
Rainfall 0.22 in
Snow Depth Not available.
UV 8 out of 12
Pollen 9.90 out of 12
Air Quality Not available.
Flu Activity Not available.
METAR KLHQ 041853Z AUTO 13003KT 10SM CLR 30/21 A3006 RMK AO2 SLP170 T03000211

10-Day Weather Forecast

×

Almanac

Astronomy

Sep. 04, 2015 Rise Set
Actual Time
Civil Twilight
Nautical Twilight
Astronomical Twilight
Moon
Length of Visible Light
Length of Day
Tomorrow will be .
, % of the Moon is Illuminated

Today's Extremes

State Highs State Lows

Community

WunderPhotos

Upload Photos

1,852,267 photos uploaded!

WunderBlogs® & News

Nearby

Air Quality

  Air Quality AQ Index Pollutant
Not available.

Snow Depth

Station Depth Elevation

Earthquake Activity

City Distance Mag. Time & Date
Minimum magnitude displayed is 2.5.

Coastal Water Temperatures

Place Temperature

Stations

Nearby Weather Stations

Station Location Temp. Windchill Dew Point Humidity Wind Precip. Elev Updated Type